Hulianwang W. Digui 15-01

operational
NORAD ID: 66953 Int'l Des: 2025-287 Owner: ZXW Country: CN Constellation: xingwang
LEOCIRCULARPOLAR

About Hulianwang W. Digui 15-01

Description loading...

Live Position

Loading 3D Globe...

Upcoming Passes

Altitude History

Altitude vs Time

uPlot chart will show altitude changes over time

Two-Line Element Set

1 66953U 25287A 25345.23875512 .00000028 00000-0 13584-4 0 9990
2 66953 86.4966 346.7027 0008551 209.4482 150.6197 13.68688345 323
Epoch: Dec 11, 2025 • Age: 68 hours

Current Status

Altitude 1031.1 km
Velocity 7.34 km/s
Sub-Earth Point -77.84°S, 140.37°W
Launch Date Dec 8, 2025
Age 6 days
Type other

Technical Details

Classification Payload
Mass 800.00 kg
Dry Mass 800.00 kg
Total Mass 800.00 kg
Length 3.00 m
Diameter 1.00 m
Span 10.00 m
Shape Box + 2 Pan
Manufacturer SECM
Bus Type Guowang S
Phase Status In Orbit
Owner/State ZXW/CN

Large Constellations

Loading constellations...